User: anonymous   Login
Location: downtown San Diego
(32.7310°N, 117.1990°W)
Time: 03:25:43
(UTC-07:00)
Language:

Meteor 1-15 Rocket - Orbit

View from above orbital plane
View from above orbital plane
View from above satellite
View from above satellite

Ground track
Ground track

The orbit data is extracted from the following two-line orbital elements,

1 06660U 73034B   18263.38587074  .00000052  00000-0  24031-4 0  9998
2 06660  81.2285 280.0400 0046003 235.4411 124.2412 14.05821795323054
Epoch (UTC): 20 September 2018 09:15:39
Eccentricity: 0.0046003
inclination: 81.2285°
perigee height: 840 km
apogee height: 907 km
right ascension of ascending node: 280.0400°
argument of perigee: 235.4411°
revolutions per day: 14.05821795
mean anomaly at epoch: 124.2412°
orbit number at epoch: 32305

The dashed part of the orbit path shows where the satellite is in the earth's shadow,  

DLR